Regional Weather Roundup
Issued by NWS

Home | Current Version | Previous Version | Text Only | Print | Product List | Glossary Off
Versions: 1 2 3 4 5 6 7 8 9 10 11 12 13 14 15 16 17 18 19 20 21 22 23 24 25 26 27 28 29 30 31 32 33 34 35 36 37 38 39 40 41 42 43 44 45 46 47 48 49 50

000
ASUS45 KCYS 091010
RWRWY

WYOMING REGIONAL WEATHER ROUNDUP
NATIONAL WEATHER SERVICE CHEYENNE WY
300 AM MST TUE FEB 09 2016

NOTE:  "FAIR" INDICATES FEW OR NO CLOUDS BELOW 12,000 FEET
WITH NO SIGNIFICANT WEATHER AND/OR OBSTRUCTIONS TO VISIBILITY.

WYZ001-091100-
YELLOWSTONE NATIONAL PARK

CITY           SKY/WX    TMP DP  RH WIND       PRES   REMARKS
LK YELLOWSTONE   N/A     12   9  87 CALM      30.56F
W YELLOWSTONE  NOT AVBL

$$
WYZ002>013-054>058-071-098>099-091100-
NORTHERN WYOMING

CITY           SKY/WX    TMP DP  RH WIND       PRES   REMARKS
JACKSON        FAIR       7   5  92 N10       30.58S WCI  -8
CODY           FAIR      28  18  64 CALM      30.34S
GREYBULL       FAIR      19  15  84 CALM      30.38R
WORLAND        FAIR      19  17  92 CALM      30.37S
SHERIDAN       FAIR      38  28  67 W6        30.29S WCI  33
BUFFALO        FAIR      41  27  57 NW7       30.29R
GILLETTE       FAIR      33  27  78 W13       30.26S WCI  24
HULETT         FAIR      34  27  75 SW7       30.26R WCI  28
NEWCASTLE      FAIR      28  23  80 NW9       30.23F WCI  20

$$
WYZ014>020-022>026-101>103-091100-
CENTRAL WYOMING

CITY           SKY/WX    TMP DP  RH WIND       PRES   REMARKS
BIG PINEY      FAIR      26  21  81 NE17      30.47S WCI  13
PINEDALE       PTSUNNY   28  21  74 NW21      30.45S WCI  15
DUBOIS         FAIR      36  21  55 W31G41    30.41S WCI  22
LANDER         FAIR      21  17  84 SE3       30.38S
RIVERTON       FAIR      16  12  84 CALM      30.39R
CASPER         FAIR      30  19  63 SW16      30.34S WCI  19
DOUGLAS        FAIR      30  21  69 NW12        N/A  WCI  20

$$
WYZ021-027>030-104>119-091100-
SOUTHERN WYOMING

CITY           SKY/WX    TMP DP  RH WIND       PRES   REMARKS
EVANSTON       FAIR      23  17  78 S7        30.55S WCI  15
FORT BRIDGER   SUNNY     34  25  69 W20       30.54S WCI  22
ROCK SPRINGS   FAIR      28  22  78 SW21      30.46S WCI  15
DIXON          FAIR      17  12  80 E7        30.53S WCI   8
RAWLINS        FAIR      30  19  63 W12G21    30.43S WCI  20
SARATOGA       FAIR      12   9  85 S7        30.45S WCI   2
LARAMIE        FAIR      19  13  77 NE7       30.34F WCI  10
CHEYENNE       FAIR      38  19  46 NW15G26   30.29S WCI  29
TORRINGTON     FAIR      33  23  66 NW12      30.25S WCI  24
PINE BLUFFS    FAIR      36  25  64 NW22      30.27S WCI  24

$$



USA.gov is the U.S. government's official web portal to all federal, state and local government web resources and services.